Temperature
25 23 23 24 24 25 24 24 24 24 24 24 23 22 22 22 22 21 21 21 21 22 22 22 21 21 21 21 20 20 20 20 19 19 19 19 19 18 18 18 18 18 18 18
23 24 25 25 25 25 25 24 24 24 24 24 23 23 22 22 22 22 22 22 22 22 22 22 22 21 21 21 21 20 20 20 20 19 19 19 18 18 18 18 18 18 18 18
25 25 25 25 25 25 25 24 24 24 24 23 23 23 22 22 22 22 22 22 23 23 23 22 22 22 21 21 21 21 20 20 20 19 19 19 18 18 18 18 18 18 18 18
25 25 25 25 25 25 24 25 25 25 23 22 23 22 22 21 21 22 22 23 23 23 23 23 22 22 22 21 21 21 20 20 20 19 19 19 19 19 18 18 18 18 18 18
25 25 25 26 26 25 25 24 24 23 22 22 22 22 22 21 21 21 22 23 23 23 23 23 22 22 22 22 21 21 21 20 20 20 19 19 19 19 18 18 18 18 18 18
25 25 26 26 26 25 24 23 22 20 20 22 22 22 22 20 21 22 22 23 23 23 23 23 23 22 22 22 21 21 21 20 20 20 19 19 19 19 18 18 18 18 18 18
25 25 25 26 25 25 24 22 21 22 20 21 21 22 22 22 22 22 23 23 24 23 23 23 23 22 22 22 22 21 21 20 20 20 19 19 19 19 18 18 18 18 18 18
23 23 25 25 25 24 23 22 21 22 21 21 21 22 22 23 23 24 24 24 24 24 23 23 23 23 23 22 22 22 21 21 20 20 19 19 19 19 18 18 18 18 18 18
22 23 24 25 25 24 23 21 21 19 21 21 21 21 22 22 22 22 23 23 23 23 23 23 23 23 23 23 22 22 21 21 20 20 19 19 19 19 18 18 18 18 18 17
22 23 24 24 24 23 22 19 18 19 20 22 22 22 22 22 22 21 21 22 23 23 23 23 23 23 23 23 22 22 21 21 21 20 20 19 19 19 18 18 18 18 18 17
22 22 23 24 24 23 22 20 18 17 19 20 21 22 22 22 21 21 21 22 23 23 23 23 23 23 23 23 22 22 21 21 20 20 20 19 19 19 19 18 18 18 18 17
19 19 20 22 23 23 23 21 19 21 19 18 20 21 23 21 21 21 22 23 23 23 23 23 23 23 23 23 22 22 22 21 21 20 20 19 19 19 19 19 18 18 18 18
19 18 20 22 22 22 22 20 19 17 16 17 20 22 22 21 21 22 22 22 23 23 23 23 23 23 23 23 22 22 22 21 21 20 20 20 19 19 19 19 18 18 18 18
19 17 19 21 21 21 22 21 19 19 18 18 19 21 22 21 20 21 22 22 22 22 22 23 23 23 22 23 22 22 22 21 21 20 20 20 19 19 19 19 18 18 18 18
18 18 19 20 21 21 22 21 20 21 19 20 21 20 21 20 20 21 21 22 22 22 22 22 22 22 22 22 22 22 21 21 21 20 20 20 20 19 19 19 18 18 18 18
16 18 19 20 21 21 22 21 21 21 20 20 21 21 20 20 21 20 21 21 21 21 22 22 22 22 22 22 22 22 21 21 21 20 20 20 20 19 19 19 18 18 18 18
14 16 17 18 19 21 21 21 21 21 20 20 21 21 20 19 19 20 20 21 21 21 22 22 22 22 22 22 22 22 21 21 21 20 20 20 19 19 19 19 18 18 18 18
14 14 14 16 19 20 20 20 21 21 20 20 20 20 19 19 21 21 22 22 22 22 22 22 22 22 22 22 22 21 21 21 20 20 20 20 19 19 19 18 18 18 18 17
13 14 14 14 17 18 20 20 20 20 20 20 19 19 19 20 20 20 22 22 22 22 23 22 22 22 22 21 21 21 20 20 20 20 20 20 19 19 19 18 18 18 18 17
13 13 14 14 17 18 19 20 21 20 20 20 19 18 18 19 19 20 22 22 22 22 22 22 22 22 22 21 21 21 20 20 20 20 19 19 19 19 19 18 18 18 17 17
15 14 14 14 16 17 18 19 20 20 19 20 20 19 19 19 20 21 22 22 22 22 22 22 22 21 21 21 21 20 20 20 20 19 19 19 19 19 18 18 18 17 17 17
14 14 13 13 16 17 18 18 18 18 20 20 20 20 20 20 21 21 21 21 21 21 21 21 21 21 21 21 20 20 20 20 19 19 19 19 18 18 18 18 17 17 17 16
13 14 13 14 15 16 17 18 19 20 20 20 20 20 20 20 20 20 21 21 21 21 21 21 21 21 20 20 20 20 19 19 19 19 19 18 18 18 17 17 17 17 16 16
13 12 12 13 15 16 17 18 19 19 20 20 20 20 21 20 20 20 20 20 20 20 20 20 20 20 20 20 19 19 19 19 19 18 18 18 17 17 17 17 16 16 16 16
13 13 12 13 14 16 17 18 19 19 20 20 20 20 20 20 20 20 19 19 19 20 19 19 19 19 19 19 19 19 18 18 18 18 18 17 17 17 17 16 16 16 16 16
12 12 13 14 15 14 16 18 18 19 19 19 20 20 20 20 19 19 19 19 19 19 19 19 18 19 19 19 18 18 18 18 17 17 17 17 17 16 16 16 16 16 15 15
Wind_Speed
4 6 4 7 7 7 7 6 4 4 4 6 5 5 5 7 8 8 7 7 7 8 6 4 5 5 4 4 5 5 5 4 4 2 2 2 1 1 1 1 1 1 2 3
6 1 6 6 6 7 7 5 2 1 2 5 3 3 3 8 10 10 9 9 8 6 5 5 5 5 5 5 6 5 5 5 4 3 2 2 2 1 1 1 2 2 1 2
6 4 5 7 6 5 4 6 5 3 3 4 3 3 2 4 6 7 7 8 8 9 8 7 6 6 6 6 6 7 6 5 4 4 3 3 3 2 2 1 1 1 1 1
3 2 5 6 5 6 4 5 6 6 5 0 2 2 6 4 5 8 9 9 9 8 7 7 7 7 7 7 6 5 5 5 4 5 4 4 3 2 1 1 0 1 2 1
4 3 5 5 5 7 5 4 6 5 6 2 2 2 7 1 5 10 10 10 9 9 9 9 9 8 7 6 6 5 5 4 4 5 5 5 3 2 1 1 1 1 2 2
3 2 3 4 2 6 7 8 8 7 5 1 3 3 6 4 8 7 9 10 9 9 9 9 7 6 5 5 5 6 5 4 4 5 5 5 5 3 2 1 0 1 1 1
3 3 1 3 5 4 6 7 4 4 3 5 3 3 8 7 7 8 8 9 10 10 9 9 8 8 7 7 7 6 6 5 4 5 5 5 5 4 4 2 1 0 0 1
3 4 3 2 6 6 5 9 8 6 5 4 1 5 7 6 4 4 5 6 7 8 9 10 10 10 9 9 8 8 7 6 5 5 4 4 4 3 3 3 2 1 1 1
6 5 4 2 2 9 7 4 7 7 3 1 4 7 8 3 1 1 2 4 6 8 9 9 9 9 9 9 9 9 9 7 6 5 4 4 4 3 3 3 2 1 1 0
7 3 3 2 5 5 6 9 6 6 6 2 4 4 5 5 4 3 3 5 6 6 7 8 8 9 8 8 8 8 8 8 7 6 5 5 4 4 4 3 3 2 1 1
5 4 2 2 3 4 4 5 6 6 6 7 3 7 6 8 7 7 7 6 7 7 8 8 8 8 8 7 7 8 8 7 6 6 6 5 4 4 4 3 3 2 1 1
3 5 1 4 3 2 4 7 8 6 4 5 5 7 6 6 6 6 6 6 6 7 7 7 7 7 8 8 7 8 8 8 7 7 6 5 5 4 4 3 3 3 2 1
5 6 3 4 5 3 4 4 5 7 6 6 5 7 4 1 2 3 4 4 5 6 6 5 6 6 7 7 7 7 8 8 7 7 7 6 5 5 5 4 3 3 2 2
5 5 6 9 7 4 2 2 5 6 5 5 7 7 6 3 2 2 3 4 4 5 6 6 6 6 6 6 7 7 8 7 8 7 7 7 6 6 5 4 4 3 3 2
5 4 3 3 3 3 3 4 5 5 8 8 8 8 9 7 6 5 4 4 4 5 5 6 6 5 6 5 5 6 6 7 7 8 8 7 6 5 5 5 4 3 3 3
4 5 2 1 1 1 2 3 6 5 5 5 4 7 7 4 2 3 4 6 5 6 6 5 5 5 5 6 6 6 6 7 7 8 7 6 6 6 6 5 5 4 3 3
3 5 4 2 3 2 3 6 6 4 4 6 7 7 2 2 4 6 6 7 7 6 6 6 6 6 6 6 7 7 7 7 8 8 7 6 6 6 6 6 5 5 4 3
7 6 4 3 2 5 8 3 4 5 3 5 5 4 4 5 4 3 4 7 6 6 6 6 6 5 5 4 4 5 6 6 7 7 7 6 7 6 6 6 6 5 4 4
5 8 5 4 4 5 6 3 5 5 4 4 5 4 2 1 3 2 2 4 6 6 6 6 6 5 4 4 4 5 5 5 6 7 7 7 7 7 7 7 7 5 5 4
5 5 6 5 5 7 8 4 2 5 3 4 4 4 3 4 2 4 3 3 3 3 3 4 4 4 4 3 5 6 5 5 6 6 6 6 6 7 8 8 7 5 5 4
4 4 4 4 4 7 7 4 2 5 7 4 5 5 5 5 5 4 2 3 4 3 3 4 5 5 5 5 5 5 5 5 5 4 5 5 5 6 6 6 5 5 5 4
6 5 5 5 4 7 3 2 5 6 3 2 4 4 4 4 3 2 2 3 4 3 3 4 5 5 4 5 6 5 5 5 3 4 4 4 4 4 5 6 6 6 6 5
4 6 6 8 8 5 3 4 4 3 3 3 3 3 4 3 2 2 3 3 4 4 4 4 5 5 4 5 6 6 5 4 4 3 3 4 4 4 5 6 6 5 5 5
2 1 3 2 5 4 4 3 2 3 3 3 4 4 4 3 3 2 2 3 3 3 3 3 5 6 5 5 6 6 5 5 5 5 4 4 4 4 4 4 5 6 6 6
4 2 2 2 5 5 4 3 3 2 2 1 2 3 4 4 3 3 3 4 4 3 3 4 5 5 6 5 5 5 5 6 6 5 5 4 5 5 4 4 4 6 6 7
4 5 5 6 6 5 5 5 3 2 4 3 2 3 2 3 3 3 3 3 3 4 4 4 3 4 5 5 5 5 6 6 6 5 5 4 5 5 5 4 3 2 4 5
Wind_Direction
48 87 156 192 181 161 150 150 174 212 178 160 196 216 205 185 193 206 208 207 214 221 218 201 193 181 167 166 166 169 166 171 149 134 134 125 134 86 56 52 48 79 125 132
52 214 208 163 141 127 132 139 183 283 141 158 190 247 211 193 206 207 207 209 213 215 209 199 187 175 176 182 182 176 176 174 169 154 139 138 135 132 133 37 37 39 84 123
174 219 152 141 145 139 163 170 181 163 81 70 94 334 248 221 209 210 210 208 207 205 204 199 189 186 181 190 193 192 185 179 173 151 116 101 77 55 44 32 15 11 60 99
206 216 151 150 168 152 209 207 163 134 112 351 114 262 280 240 223 217 216 209 208 204 193 190 186 182 186 193 184 179 177 175 167 153 152 153 156 167 203 200 340 2 32 64
219 175 152 171 196 164 187 118 118 118 120 73 44 154 284 246 237 235 223 213 204 195 186 185 185 184 183 179 171 170 164 166 161 160 165 161 159 168 149 108 69 360 14 34
235 226 182 185 136 137 121 77 60 52 73 87 231 169 276 234 225 234 223 214 202 191 187 184 176 168 170 166 162 158 154 164 159 157 159 164 165 160 144 138 122 1 6 10
344 319 287 136 103 76 102 97 53 20 16 250 247 184 249 252 229 221 220 212 202 186 182 177 168 175 177 174 169 161 160 170 164 159 164 169 166 161 168 175 178 174 3 343
154 272 255 186 161 158 163 139 154 179 207 265 312 231 254 268 249 224 214 198 188 181 181 182 183 183 181 178 173 168 169 176 168 167 173 169 166 170 174 176 177 184 205 258
165 240 287 250 144 135 137 155 155 130 138 134 282 288 307 333 6 68 183 175 186 190 185 186 184 181 179 178 179 177 175 176 173 173 168 165 167 166 166 161 156 167 185 168
148 199 289 309 75 42 130 140 105 120 143 216 293 281 257 269 249 235 218 208 203 192 182 181 180 179 178 177 175 171 173 177 177 174 178 179 175 174 165 150 152 158 163 129
122 143 316 52 147 173 106 97 104 111 143 153 218 267 232 223 219 212 221 215 199 191 188 184 178 173 170 166 168 172 173 173 174 176 178 175 171 166 156 155 165 168 158 135
115 123 198 260 271 205 146 150 144 150 187 164 169 259 278 229 220 207 212 209 194 189 185 177 170 165 166 170 172 178 176 180 181 177 174 177 171 161 161 167 172 164 160 151
125 110 93 348 343 17 87 115 128 122 118 149 169 257 317 323 215 203 192 191 180 171 169 162 161 167 174 177 175 179 182 184 179 171 171 173 176 173 176 177 173 162 156 141
113 110 160 190 211 199 166 147 148 126 145 185 212 242 293 293 260 242 209 187 173 166 166 166 171 178 181 182 181 181 184 179 173 171 174 181 189 187 183 176 168 165 158 147
99 131 175 219 221 177 184 188 176 174 179 182 218 224 249 243 230 223 196 169 158 165 172 177 181 182 179 175 177 179 181 177 174 174 182 191 190 181 173 169 168 163 159 159
75 131 128 331 302 201 202 211 194 193 186 201 211 248 252 252 198 189 181 174 176 184 185 179 176 174 181 182 179 176 179 175 169 176 188 186 178 176 177 175 170 163 162 158
102 120 119 224 295 47 248 221 192 189 194 176 203 235 239 181 195 200 196 188 188 187 184 179 180 185 193 192 179 177 179 170 171 178 181 179 180 186 187 178 170 176 177 171
137 120 125 139 113 205 238 247 181 180 214 206 212 232 214 215 209 202 188 186 190 187 185 187 185 189 190 173 163 166 162 169 176 181 180 175 177 185 183 174 179 185 182 185
150 136 125 134 173 251 281 237 179 180 240 226 211 229 220 152 69 346 227 198 198 197 190 189 187 177 166 160 157 152 163 174 181 189 190 188 185 186 185 187 191 190 185 192
80 105 123 136 158 217 238 252 213 136 245 253 196 202 171 127 141 253 237 203 205 193 184 176 160 142 153 167 156 156 168 182 201 203 197 189 188 190 193 194 194 189 187 190
86 80 130 156 194 248 251 273 124 163 228 236 195 187 166 182 209 237 211 194 192 188 182 165 158 167 180 168 159 168 178 200 210 201 191 186 192 197 196 194 190 177 177 176
165 154 169 154 181 242 261 139 169 211 236 211 189 184 185 209 239 249 212 193 182 174 175 169 171 183 179 168 167 181 204 210 193 185 187 190 192 199 194 186 184 179 174 175
189 189 185 188 209 239 238 209 223 188 185 202 194 198 185 202 233 243 224 205 195 186 186 182 178 182 183 181 181 195 206 186 178 178 194 195 190 193 190 184 182 179 177 183
271 152 150 244 266 273 277 273 265 213 208 210 199 199 185 199 217 219 227 222 208 199 194 187 182 186 196 197 197 203 195 180 174 184 196 192 187 189 186 184 184 185 190 194
236 179 162 251 277 306 300 286 280 286 264 247 249 222 206 188 203 204 217 223 218 206 198 191 195 199 202 197 201 196 183 175 179 187 192 192 193 192 191 192 194 200 205 200
218 192 183 225 231 213 254 271 267 269 275 262 257 269 246 208 215 211 222 227 217 205 200 198 205 208 204 194 195 192 184 179 182 191 195 196 196 195 191 188 194 209 206 202
Height
1487 1494 1502 1500 1498 1500 1506 1513 1517 1513 1508 1513 1517 1518 1517 1518 1520 1521 1522 1523 1525 1526 1528 1530 1531 1532 1534 1535 1536 1538 1539 1540 1541 1542 1543 1543 1544 1544 1545 1545 1546 1546 1547 1547
1494 1498 1493 1493 1496 1499 1505 1513 1515 1511 1508 1513 1518 1518 1515 1516 1517 1518 1520 1521 1523 1525 1526 1528 1530 1531 1532 1534 1536 1537 1538 1540 1541 1542 1543 1544 1544 1544 1545 1545 1546 1546 1547 1547
1494 1493 1490 1493 1498 1503 1507 1511 1512 1513 1511 1513 1518 1523 1518 1515 1515 1517 1518 1519 1520 1522 1523 1526 1528 1529 1531 1533 1535 1536 1538 1539 1540 1542 1543 1543 1544 1544 1545 1545 1546 1546 1546 1547
1491 1489 1490 1494 1498 1501 1510 1502 1505 1510 1520 1529 1523 1539 1522 1516 1515 1514 1514 1515 1516 1519 1521 1523 1525 1528 1529 1531 1534 1536 1537 1539 1540 1541 1542 1543 1543 1544 1544 1545 1545 1546 1546 1546
1491 1488 1491 1495 1494 1495 1501 1499 1504 1511 1521 1530 1528 1536 1528 1517 1517 1512 1510 1511 1513 1515 1518 1520 1523 1526 1528 1530 1533 1535 1536 1538 1539 1540 1541 1542 1543 1543 1544 1544 1545 1545 1545 1546
1487 1485 1486 1488 1489 1491 1496 1505 1513 1521 1529 1543 1532 1537 1532 1520 1512 1507 1506 1507 1510 1512 1515 1518 1521 1524 1527 1529 1531 1533 1535 1536 1538 1539 1540 1541 1541 1542 1543 1544 1544 1544 1545 1545
1493 1488 1485 1485 1492 1495 1499 1518 1539 1543 1552 1547 1531 1532 1527 1506 1502 1501 1502 1503 1506 1509 1513 1515 1518 1522 1525 1528 1530 1532 1534 1535 1537 1538 1538 1539 1540 1541 1542 1543 1543 1543 1543 1544
1504 1505 1489 1485 1489 1498 1503 1512 1537 1550 1553 1546 1533 1533 1515 1500 1498 1498 1499 1500 1503 1507 1510 1513 1516 1520 1523 1525 1528 1530 1532 1534 1535 1536 1537 1538 1539 1540 1541 1542 1542 1542 1542 1543
1504 1503 1486 1483 1484 1490 1504 1512 1513 1533 1540 1545 1539 1526 1509 1498 1497 1497 1498 1500 1502 1504 1508 1511 1514 1517 1520 1523 1526 1528 1530 1532 1534 1535 1537 1538 1539 1540 1540 1541 1541 1542 1542 1542
1491 1499 1489 1485 1485 1490 1495 1506 1521 1534 1548 1550 1538 1531 1522 1505 1501 1498 1498 1499 1501 1503 1506 1509 1512 1515 1518 1522 1524 1527 1529 1531 1533 1534 1536 1537 1538 1539 1540 1540 1540 1541 1541 1541
1487 1499 1496 1491 1493 1498 1501 1509 1519 1532 1533 1547 1548 1533 1502 1499 1496 1496 1496 1497 1499 1502 1504 1507 1510 1513 1517 1520 1522 1525 1527 1529 1531 1533 1535 1536 1537 1538 1539 1539 1539 1540 1540 1541
1489 1500 1507 1498 1490 1488 1491 1501 1513 1524 1534 1537 1540 1528 1492 1492 1492 1493 1494 1495 1497 1500 1503 1506 1508 1512 1515 1518 1520 1523 1524 1527 1529 1532 1533 1535 1536 1537 1537 1538 1538 1539 1539 1540
1489 1502 1514 1511 1505 1496 1496 1500 1505 1515 1529 1538 1537 1521 1492 1491 1491 1492 1493 1494 1496 1498 1501 1504 1507 1510 1512 1515 1517 1520 1523 1525 1527 1530 1532 1533 1534 1535 1536 1537 1537 1538 1538 1539
1483 1500 1509 1515 1509 1501 1500 1501 1504 1510 1525 1530 1523 1512 1498 1494 1493 1492 1492 1494 1495 1497 1500 1503 1505 1508 1510 1513 1515 1517 1520 1523 1525 1527 1529 1531 1532 1533 1534 1535 1536 1536 1537 1537
1485 1499 1499 1498 1495 1495 1495 1498 1500 1502 1508 1514 1509 1507 1497 1492 1491 1491 1491 1493 1495 1497 1499 1501 1504 1506 1508 1511 1513 1516 1518 1521 1523 1525 1527 1528 1530 1531 1532 1533 1534 1535 1535 1536
1489 1498 1498 1499 1495 1494 1495 1495 1496 1497 1500 1502 1501 1500 1489 1489 1489 1490 1491 1492 1493 1495 1497 1500 1502 1504 1506 1508 1511 1513 1516 1518 1521 1523 1524 1526 1528 1529 1530 1531 1532 1532 1533 1534
1494 1498 1506 1509 1500 1496 1504 1494 1494 1494 1493 1495 1499 1493 1487 1488 1488 1488 1489 1490 1491 1493 1495 1497 1500 1502 1504 1507 1509 1511 1514 1516 1518 1519 1521 1523 1525 1526 1527 1528 1529 1530 1531 1532
1492 1501 1509 1513 1507 1516 1500 1486 1486 1488 1489 1488 1487 1486 1485 1485 1485 1486 1487 1488 1490 1491 1494 1496 1498 1500 1503 1505 1507 1509 1511 1513 1514 1516 1518 1519 1521 1522 1524 1525 1526 1528 1529 1529
1486 1496 1510 1517 1516 1507 1493 1485 1485 1488 1489 1484 1485 1484 1484 1484 1485 1486 1486 1487 1488 1490 1491 1494 1496 1498 1501 1503 1505 1507 1509 1510 1511 1513 1514 1516 1518 1519 1520 1522 1523 1524 1526 1527
1488 1492 1505 1513 1513 1513 1493 1480 1479 1484 1492 1482 1482 1482 1483 1484 1489 1487 1485 1486 1487 1489 1490 1492 1494 1496 1498 1501 1503 1505 1506 1507 1508 1509 1511 1512 1514 1516 1517 1519 1520 1521 1523 1524
1495 1499 1504 1509 1508 1500 1483 1478 1479 1495 1491 1479 1479 1480 1482 1483 1484 1483 1483 1484 1485 1487 1489 1491 1493 1494 1496 1499 1500 1502 1503 1504 1506 1507 1508 1509 1511 1512 1514 1515 1516 1518 1519 1520
1494 1499 1504 1507 1506 1499 1478 1478 1482 1482 1477 1477 1477 1478 1480 1480 1481 1481 1481 1482 1483 1484 1486 1488 1490 1492 1494 1496 1497 1498 1500 1502 1503 1504 1505 1506 1508 1509 1511 1512 1513 1514 1515 1517
1489 1489 1491 1491 1490 1479 1476 1476 1476 1476 1475 1475 1476 1477 1478 1478 1479 1480 1480 1480 1481 1482 1484 1485 1487 1489 1491 1493 1495 1496 1497 1499 1500 1501 1502 1503 1505 1506 1507 1508 1509 1510 1511 1513
1484 1483 1485 1485 1479 1476 1475 1474 1474 1474 1474 1474 1475 1475 1476 1476 1477 1477 1478 1478 1479 1480 1481 1482 1484 1485 1487 1489 1491 1493 1495 1496 1497 1498 1499 1500 1501 1502 1503 1505 1506 1506 1507 1508
1482 1482 1483 1482 1477 1474 1473 1473 1473 1472 1472 1473 1473 1473 1474 1474 1474 1475 1475 1476 1476 1477 1479 1480 1481 1482 1483 1485 1487 1489 1490 1492 1493 1494 1495 1496 1497 1498 1499 1500 1501 1503 1504 1505
1478 1479 1480 1479 1474 1475 1472 1471 1472 1471 1471 1471 1471 1471 1471 1472 1471 1472 1472 1473 1474 1474 1475 1476 1477 1478 1480 1481 1483 1484 1486 1488 1489 1490 1491 1492 1493 1494 1495 1496 1497 1498 1500 1501